This is the latest recevied weather packets stored in our database for station/object K6CED. If no packets are shown the sender has not sent any weather packets the latest 1 day(s).
| Time | Temp. | Humidity | Pressure | Rain* | Wind** | Luminosity | Snow |
|---|---|---|---|---|---|---|---|
| 1777989571 | 11.11° C | 98% | 1015.8 hPa | 0 mm | 0.89 m/s, 64° | 78 W/m² | - |
| 1777989266 | 11.11° C | 98% | 1015.6 hPa | 0 mm | 0.89 m/s, 70° | 63 W/m² | - |
| 1777988963 | 11.11° C | 98% | 1015.6 hPa | 0 mm | 0.45 m/s, 97° | 49 W/m² | - |
| 1777988660 | 11.11° C | 98% | 1015.6 hPa | 0 mm | 0.45 m/s, 50° | 38 W/m² | - |
| 1777988356 | 11.11° C | 98% | 1015.5 hPa | 0 mm | 0.45 m/s, 72° | 35 W/m² | - |
| 1777988053 | 11.11° C | 98% | 1015.3 hPa | 0 mm | 0.45 m/s, 78° | 30 W/m² | - |
| 1777987748 | 11.11° C | 98% | 1015.3 hPa | 0 mm | 0.89 m/s, 71° | 26 W/m² | - |
| 1777987446 | 11.11° C | 98% | 1015.3 hPa | 0 mm | 0.89 m/s, 67° | 24 W/m² | - |
| 1777987143 | 11.11° C | 98% | 1015.3 hPa | 0 mm | 0.89 m/s, 47° | 18 W/m² | - |
| 1777986840 | 11.11° C | 98% | 1015.5 hPa | 6.1 mm | 0.89 m/s, 61° | 12 W/m² | - |
| 1777986538 | 11.11° C | 98% | 1015.2 hPa | 6.1 mm | 0.89 m/s, 80° | 9 W/m² | - |
| 1777986236 | 11.11° C | 98% | 1015.6 hPa | - | 0.45 m/s, 85° | 6 W/m² | - |
| 1777985933 | 11.11° C | 98% | 1015.3 hPa | - | 0.45 m/s, 89° | 4 W/m² | - |
| 1777985631 | 11.11° C | 98% | 1015.2 hPa | - | 0.45 m/s, 86° | 2 W/m² | - |
| 1777985327 | 11.11° C | 98% | 1015.3 hPa | - | 0.89 m/s, 79° | 1 W/m² | - |
| 1777985024 | 11.11° C | 98% | 1015.2 hPa | - | 0.89 m/s, 100° | 0 W/m² | - |
| 1777984720 | 11.11° C | 98% | 1015 hPa | - | 0.45 m/s, 62° | 0 W/m² | - |
| 1777984416 | 11.11° C | 98% | 1015.1 hPa | 0 mm | 0.89 m/s, 74° | 0 W/m² | - |
| 1777984112 | 11.11° C | 97% | 1015.3 hPa | 0 mm | 0.89 m/s, 73° | 0 W/m² | - |
| 1777983810 | 11.11° C | 97% | 1015.2 hPa | 0 mm | 1.34 m/s, 63° | 0 W/m² | - |
| 1777983506 | 11.11° C | 97% | 1015.3 hPa | 0 mm | 0.89 m/s, 54° | 0 W/m² | - |
| 1777983203 | 11.11° C | 97% | 1015.3 hPa | 0 mm | 0.45 m/s, 69° | 0 W/m² | - |
| 1777982899 | 11.11° C | 97% | 1015.1 hPa | 0 mm | 0.89 m/s, 43° | 0 W/m² | - |
| 1777982595 | 11.11° C | 97% | 1015.4 hPa | 0 mm | 0.89 m/s, 14° | 0 W/m² | - |
| 1777982294 | 11.11° C | 97% | 1015.4 hPa | 0 mm | 0.89 m/s, 48° | 0 W/m² | - |
* Rain latest hour (hover to see other rain measurements)
** Current wind speed in m/s (hover to see current wind gust speed)